| time (UTC) | temp C | wind direction | speed KPH | gust KPH | rain 1hr cm | rain 24hr cm | rain mn cm | humidity % | barometer mb |
| 20260502224155 | 28 | 53 | 11.3 | 16.1 | 0.00 | 0.00 | 0.00 | 26 | 1013.8 |
| 20260502223152 | 28 | 38 | 9.7 | 14.5 | 0.00 | 0.00 | 0.00 | 26 | 1014.0 |
| 20260502222213 | 28 | 54 | 11.3 | 16.1 | 0.00 | 0.00 | 0.00 | 26 | 1014.2 |
| 20260502221128 | 28 | 25 | 9.7 | 14.5 | 0.00 | 0.00 | 0.00 | 29 | 1014.1 |
| 20260502220148 | 28 | 59 | 12.9 | 17.7 | 0.00 | 0.00 | 0.00 | 27 | 1014.5 |
| 20260502215147 | 28 | 36 | 16.1 | 20.9 | 0.00 | 0.00 | 0.00 | 27 | 1014.4 |
| 20260502214124 | 27 | 53 | 17.7 | 24.1 | 0.00 | 0.00 | 0.00 | 28 | 1014.6 |
| 20260502213139 | 28 | 22 | 14.5 | 19.3 | 0.00 | 0.00 | 0.00 | 30 | 1014.5 |
| 20260502212141 | 27 | 48 | 12.9 | 19.3 | 0.00 | 0.00 | 0.00 | 31 | 1014.7 |
| 20260502211136 | 27 | 27 | 16.1 | 20.9 | 0.00 | 0.00 | 0.00 | 32 | 1014.9 |
| 20260502210136 | 27 | 31 | 14.5 | 20.9 | 0.00 | 0.00 | 0.00 | 32 | 1015.0 |
| 20260502205129 | 26 | 55 | 11.3 | 16.1 | 0.00 | 0.00 | 0.00 | 33 | 1015.2 |
| 20260502204128 | 26 | 9 | 14.5 | 20.9 | 0.00 | 0.00 | 0.00 | 32 | 1015.0 |
| 20260502203128 | 26 | 29 | 9.7 | 16.1 | 0.00 | 0.00 | 0.00 | 33 | 1015.3 |
| 20260502202127 | 26 | 31 | 19.3 | 27.4 | 0.00 | 0.00 | 0.00 | 33 | 1015.4 |
| 20260502201122 | 26 | 9 | 16.1 | 22.5 | 0.00 | 0.00 | 0.00 | 33 | 1015.6 |
| 20260502200143 | 25 | 53 | 11.3 | 17.7 | 0.00 | 0.00 | 0.00 | 35 | 1015.7 |
| 20260502195200 | 25 | 12 | 14.5 | 19.3 | 0.00 | 0.00 | 0.00 | 33 | 1015.8 |
| 20260502194134 | 25 | 38 | 16.1 | 19.3 | 0.00 | 0.00 | 0.00 | 35 | 1016.0 |
| 20260502193132 | 25 | 39 | 9.7 | 12.9 | 0.00 | 0.00 | 0.00 | 35 | 1015.9 |
| 20260502192132 | 25 | 48 | 12.9 | 16.1 | 0.00 | 0.00 | 0.00 | 35 | 1016.0 |
| 20260502191132 | 23 | 60 | 6.4 | 9.7 | 0.00 | 0.00 | 0.00 | 37 | 1016.1 |
| 20260502190129 | 23 | 32 | 14.5 | 22.5 | 0.00 | 0.00 | 0.00 | 36 | 1016.3 |
| 20260502185121 | 23 | 16 | 11.3 | 16.1 | 0.00 | 0.00 | 0.00 | 37 | 1016.3 |
| 20260502184125 | 23 | 21 | 16.1 | 19.3 | 0.00 | 0.00 | 0.00 | 37 | 1016.4 |
| 20260502183121 | 23 | 7 | 8.0 | 11.3 | 0.00 | 0.00 | 0.00 | 37 | 1016.5 |
| 20260502182138 | 22 | 36 | 12.9 | 19.3 | 0.00 | 0.00 | 0.00 | 38 | 1016.4 |
| 20260502181138 | 22 | 8 | 12.9 | 16.1 | 0.00 | 0.00 | 0.00 | 38 | 1016.6 |
| 20260502180130 | 22 | 29 | 12.9 | 16.1 | 0.00 | 0.00 | 0.00 | 37 | 1016.5 |
| 20260502170122 | 20 | 344 | 12.9 | 19.3 | 0.00 | 0.00 | 0.00 | 41 | 1016.4 |
| 20260502164138 | 19 | 357 | 14.5 | 19.3 | 0.00 | 0.00 | 0.00 | 43 | 1016.4 |
| 20260502163132 | 19 | 350 | 16.1 | 25.7 | 0.00 | 0.00 | 0.00 | 43 | 1016.4 |
| 20260502162129 | 18 | 8 | 12.9 | 19.3 | 0.00 | 0.00 | 0.00 | 45 | 1016.3 |
| 20260502161124 | 18 | 6 | 9.7 | 12.9 | 0.00 | 0.00 | 0.00 | 45 | 1016.5 |
| 20260502160122 | 18 | 17 | 9.7 | 16.1 | 0.00 | 0.00 | 0.00 | 46 | 1016.5 |
| 20260502152136 | 17 | 357 | 12.9 | 20.9 | 0.00 | 0.00 | 0.00 | 47 | 1016.3 |
| 20260502151136 | 17 | 357 | 11.3 | 16.1 | 0.00 | 0.00 | 0.00 | 47 | 1016.3 |
| 20260502150134 | 16 | 350 | 3.2 | 4.8 | 0.00 | 0.00 | 0.00 | 50 | 1016.3 |
| 20260502130125 | 15 | 0 | 4.8 | 6.4 | 0.00 | 0.00 | 0.00 | 55 | 1015.8 |
| 20260502123135 | 15 | 295 | 0.0 | 1.6 | 0.00 | 0.00 | 0.00 | 53 | 1015.8 |
| 20260502122135 | 15 | 12 | 3.2 | 4.8 | 0.00 | 0.00 | 0.00 | 52 | 1015.6 |
| 20260502121156 | 14 | 23 | 4.8 | 6.4 | 0.00 | 0.00 | 0.00 | 55 | 1015.5 |
| 20260502120131 | 14 | 296 | 3.2 | 3.2 | 0.00 | 0.00 | 0.00 | 56 | 1015.6 |
| 20260502115154 | 14 | 18 | 3.2 | 4.8 | 0.00 | 0.00 | 0.00 | 55 | 1015.7 |
| 20260502114149 | 14 | 325 | 4.8 | 4.8 | 0.00 | 0.00 | 0.00 | 55 | 1015.7 |
| 20260502113126 | 15 | 329 | 4.8 | 6.4 | 0.00 | 0.00 | 0.00 | 55 | 1015.6 |
| 20260502112124 | 15 | 190 | 1.6 | 3.2 | 0.00 | 0.00 | 0.00 | 52 | 1015.5 |
| 20260502111130 | 15 | 0.0 | 1.6 | 0.00 | 0.00 | 0.00 | 53 | 1015.6 | |
| 20260502110143 | 15 | 253 | 4.8 | 6.4 | 0.00 | 0.00 | 0.00 | 53 | 1015.5 |
| 20260502105131 | 15 | 225 | 3.2 | 3.2 | 0.00 | 0.00 | 0.00 | 52 | 1015.5 |
| 20260502104133 | 15 | 218 | 6.4 | 8.0 | 0.00 | 0.00 | 0.00 | 52 | 1015.4 |
| 20260502103126 | 15 | 221 | 3.2 | 3.2 | 0.00 | 0.00 | 0.00 | 53 | 1015.4 |
| 20260502102126 | 16 | 0.0 | 1.6 | 0.00 | 0.00 | 0.00 | 49 | 1015.4 | |
| 20260502101128 | 16 | 191 | 3.2 | 3.2 | 0.00 | 0.00 | 0.00 | 49 | 1015.3 |
| 20260502100118 | 16 | 95 | 1.6 | 3.2 | 0.00 | 0.00 | 0.00 | 50 | 1015.3 |
| 20260502091153 | 16 | 193 | 1.6 | 1.6 | 0.00 | 0.00 | 0.00 | 47 | 1015.2 |
| 20260502090127 | 16 | 193 | 1.6 | 3.2 | 0.00 | 0.00 | 0.00 | 48 | 1015.5 |
| 20260502071124 | 17 | 309 | 6.4 | 8.0 | 0.00 | 0.00 | 0.00 | 49 | 1015.3 |
| 20260502070119 | 17 | 307 | 6.4 | 6.4 | 0.00 | 0.00 | 0.00 | 48 | 1015.3 |
| 20260502065142 | 16 | 304 | 6.4 | 8.0 | 0.00 | 0.00 | 0.00 | 50 | 1015.2 |
| 20260502064135 | 16 | 304 | 6.4 | 8.0 | 0.00 | 0.00 | 0.00 | 50 | 1015.2 |
| 20260502063134 | 16 | 323 | 8.0 | 9.7 | 0.00 | 0.00 | 0.00 | 50 | 1015.3 |
| 20260502062134 | 16 | 313 | 8.0 | 9.7 | 0.00 | 0.00 | 0.00 | 51 | 1015.2 |
| 20260502061131 | 17 | 310 | 8.0 | 11.3 | 0.00 | 0.00 | 0.00 | 50 | 1015.2 |
| 20260502060147 | 17 | 309 | 8.0 | 9.7 | 0.00 | 0.00 | 0.00 | 50 | 1015.2 |
| 20260502055143 | 17 | 307 | 8.0 | 9.7 | 0.00 | 0.00 | 0.00 | 47 | 1015.2 |
| 20260502054125 | 17 | 317 | 6.4 | 8.0 | 0.00 | 0.00 | 0.00 | 49 | 1015.2 |
| 20260502053124 | 17 | 306 | 8.0 | 9.7 | 0.00 | 0.00 | 0.00 | 46 | 1015.2 |
| 20260502052156 | 20 | 318 | 6.4 | 6.4 | 0.00 | 0.00 | 0.00 | 41 | 1015.2 |
| 20260502051137 | 20 | 295 | 6.4 | 6.4 | 0.00 | 0.00 | 0.00 | 38 | 1015.1 |
| 20260502050131 | 20 | 313 | 6.4 | 6.4 | 0.00 | 0.00 | 0.00 | 38 | 1015.2 |
| 20260502045209 | 20 | 308 | 6.4 | 6.4 | 0.00 | 0.00 | 0.00 | 39 | 1015.1 |
| 20260502044129 | 20 | 300 | 6.4 | 6.4 | 0.00 | 0.00 | 0.00 | 38 | 1015.3 |
| 20260502043127 | 20 | 307 | 4.8 | 6.4 | 0.00 | 0.00 | 0.00 | 39 | 1015.2 |
| 20260502042122 | 20 | 323 | 6.4 | 6.4 | 0.00 | 0.00 | 0.00 | 41 | 1015.1 |
| 20260502041144 | 20 | 301 | 6.4 | 6.4 | 0.00 | 0.00 | 0.00 | 41 | 1015.1 |
| 20260502040141 | 20 | 314 | 8.0 | 9.7 | 0.00 | 0.00 | 0.00 | 41 | 1015.0 |
| 20260502035239 | 21 | 328 | 3.2 | 3.2 | 0.00 | 0.00 | 0.00 | 36 | 1015.0 |
| 20260502034156 | 21 | 352 | 1.6 | 3.2 | 0.00 | 0.00 | 0.00 | 35 | 1014.9 |
| 20260502033129 | 21 | 26 | 3.2 | 4.8 | 0.00 | 0.00 | 0.00 | 34 | 1014.8 |
| 20260502032128 | 21 | 0.0 | 0.0 | 0.00 | 0.00 | 0.00 | 32 | 1014.9 | |
| 20260502031129 | 21 | 13 | 0.0 | 1.6 | 0.00 | 0.00 | 0.00 | 34 | 1014.7 |
| 20260502030126 | 22 | 355 | 3.2 | 4.8 | 0.00 | 0.00 | 0.00 | 33 | 1014.6 |
| 20260502025123 | 22 | 311 | 0.0 | 3.2 | 0.00 | 0.00 | 0.00 | 31 | 1014.6 |
| 20260502024123 | 22 | 1 | 3.2 | 3.2 | 0.00 | 0.00 | 0.00 | 32 | 1014.5 |
| 20260502023137 | 22 | 358 | 3.2 | 4.8 | 0.00 | 0.00 | 0.00 | 33 | 1014.5 |
| 20260502022136 | 23 | 3 | 6.4 | 6.4 | 0.00 | 0.00 | 0.00 | 33 | 1014.6 |
| 20260502021131 | 23 | 4 | 3.2 | 4.8 | 0.00 | 0.00 | 0.00 | 33 | 1014.5 |
| 20260502020133 | 23 | 360 | 3.2 | 3.2 | 0.00 | 0.00 | 0.00 | 33 | 1014.5 |
| 20260502015128 | 23 | 358 | 3.2 | 3.2 | 0.00 | 0.00 | 0.00 | 34 | 1014.7 |
| 20260502014151 | 24 | 4 | 6.4 | 8.0 | 0.00 | 0.00 | 0.00 | 32 | 1014.9 |
| 20260502013128 | 24 | 19 | 8.0 | 9.7 | 0.00 | 0.00 | 0.00 | 31 | 1014.7 |
| 20260502012124 | 25 | 352 | 6.4 | 9.7 | 0.00 | 0.00 | 0.00 | 29 | 1014.8 |
| 20260502011125 | 25 | 359 | 8.0 | 11.3 | 0.00 | 0.00 | 0.00 | 28 | 1014.9 |
| 20260502010135 | 25 | 14 | 8.0 | 12.9 | 0.00 | 0.00 | 0.00 | 27 | 1015.0 |
| 20260502005138 | 25 | 32 | 9.7 | 12.9 | 0.00 | 0.00 | 0.00 | 27 | 1015.1 |
| 20260502004133 | 25 | 359 | 11.3 | 12.9 | 0.00 | 0.00 | 0.00 | 27 | 1015.1 |
| 20260502003131 | 25 | 355 | 9.7 | 12.9 | 0.00 | 0.00 | 0.00 | 27 | 1015.1 |
| 20260502002133 | 25 | 359 | 11.3 | 14.5 | 0.00 | 0.00 | 0.00 | 27 | 1015.4 |
| 20260502001133 | 26 | 19 | 12.9 | 16.1 | 0.00 | 0.00 | 0.00 | 27 | 1015.3 |
| 20260502000123 | 26 | 2 | 11.3 | 17.7 | 0.00 | 0.00 | 0.00 | 27 | 1015.5 |
| 20260501235122 | 26 | 28 | 6.4 | 9.7 | 0.00 | 0.00 | 0.00 | 26 | 1015.3 |
| 20260501234123 | 26 | 15 | 6.4 | 8.0 | 0.00 | 0.00 | 0.00 | 26 | 1015.4 |
| 20260501233157 | 26 | 11 | 9.7 | 14.5 | 0.00 | 0.00 | 0.00 | 26 | 1015.6 |
| 20260501232134 | 26 | 55 | 8.0 | 14.5 | 0.00 | 0.00 | 0.00 | 26 | 1015.7 |
| 20260501231135 | 26 | 31 | 8.0 | 14.5 | 0.00 | 0.00 | 0.00 | 27 | 1015.8 |
| 20260501230132 | 26 | 7 | 11.3 | 16.1 | 0.00 | 0.00 | 0.00 | 25 | 1015.8 |
| 20260501225131 | 26 | 93 | 6.4 | 8.0 | 0.00 | 0.00 | 0.00 | 25 | 1016.0 |